Theta_e
344 344 343 343 342 342 341 337 336 337 337 338 339 339 339 339 339 339 340 341 341 341 340 340 340 340 339 337 337 335 330 328 331 325 315 312 316 326 328 324 322 321 323 324 324 325 324 324 324 324 323 323 323 326 328 329 329 328 329 330 331 331
344 344 343 343 342 342 342 339 337 340 339 338 340 339 339 339 340 339 340 341 340 340 339 339 340 340 339 338 336 333 328 328 332 327 315 311 315 325 329 325 324 323 324 325 324 325 325 325 324 324 325 326 326 328 329 330 330 330 330 331 331 331
344 343 343 342 342 342 341 339 338 340 339 339 340 339 339 340 339 339 340 340 339 339 338 338 339 339 338 337 333 328 328 329 331 329 318 313 314 322 330 328 326 327 327 327 327 326 325 324 324 326 328 328 328 329 329 330 330 331 331 331 332 332
344 343 342 342 342 342 341 340 338 339 340 340 339 338 339 339 339 338 339 339 338 338 337 337 338 338 338 335 330 326 328 329 330 331 323 314 313 318 326 329 328 328 328 328 327 325 324 325 327 330 331 331 330 329 328 330 331 331 331 332 333 333
343 342 342 342 342 342 342 341 339 339 340 340 339 338 339 339 339 337 338 338 336 336 335 336 337 337 337 332 328 327 329 329 330 332 327 318 315 314 320 325 326 326 326 325 324 324 327 329 331 333 335 333 330 329 329 331 332 332 332 333 334 334
343 342 342 343 342 341 342 340 339 339 339 339 339 339 339 339 339 337 338 337 335 336 335 335 336 336 335 330 327 328 329 330 330 331 329 322 317 315 317 319 320 322 323 323 324 328 330 330 331 335 336 335 331 330 332 333 333 334 334 334 334 335
342 342 342 342 341 341 341 340 339 339 339 339 339 339 339 338 339 338 337 336 334 334 334 333 335 335 333 330 328 329 329 330 330 331 331 325 318 317 317 318 319 321 321 324 328 331 331 331 334 336 337 336 334 333 334 334 334 334 334 334 334 334
342 342 342 341 341 340 340 339 340 339 339 339 339 340 339 338 339 337 337 336 332 332 332 331 332 333 333 332 331 331 331 332 332 331 331 327 320 316 318 321 320 320 323 329 332 332 333 335 336 337 337 337 336 335 334 334 334 334 334 333 333 333
342 341 341 340 340 340 340 339 339 339 339 339 339 340 339 338 339 337 337 336 333 332 331 329 329 329 330 332 331 331 331 331 331 330 331 328 321 316 317 319 319 323 329 332 332 334 336 336 337 338 338 336 335 334 333 333 333 334 334 333 334 334
341 341 340 340 340 340 339 339 339 339 339 339 339 339 339 338 338 338 337 336 333 331 330 328 327 327 327 327 326 327 328 328 328 328 329 329 323 316 314 317 322 329 331 331 333 336 336 335 337 338 338 336 334 334 333 333 334 333 334 334 335 334
341 341 340 340 339 340 339 339 339 339 339 339 338 339 339 338 337 337 336 335 333 331 330 329 328 329 328 326 326 328 329 329 328 327 327 328 326 318 316 323 329 331 331 332 335 336 336 336 337 337 337 336 335 335 335 335 335 335 335 335 336 335
341 340 339 339 339 340 339 339 339 339 339 339 338 338 338 337 337 336 335 334 333 332 332 331 330 330 329 329 330 332 332 331 329 329 328 328 326 319 320 329 331 330 332 334 335 336 337 336 336 336 336 335 336 336 336 336 336 335 335 334 334 334
341 339 339 339 339 340 339 339 339 338 339 339 339 338 337 337 337 336 336 334 333 333 333 332 331 331 331 332 332 333 333 333 331 330 330 329 324 319 323 331 330 330 334 335 336 337 337 336 335 335 335 335 336 336 336 336 336 335 334 333 332 332
340 338 339 339 339 340 339 338 339 338 339 339 339 338 337 337 337 336 336 335 334 334 333 333 332 332 333 334 334 334 334 333 331 331 331 328 324 323 327 331 331 331 333 336 337 337 336 336 336 335 336 336 336 336 335 335 335 334 333 332 332 332
340 338 338 339 339 340 340 338 338 338 338 339 338 338 337 337 338 337 336 335 334 334 334 333 333 333 334 335 335 335 335 333 332 332 332 329 327 328 330 332 333 332 331 335 338 337 336 336 336 336 336 336 336 335 335 335 335 333 330 330 331 332
340 339 339 338 338 339 340 339 338 338 337 337 338 337 337 337 338 337 336 335 334 335 335 334 333 334 335 335 335 335 335 334 332 333 333 333 332 332 332 333 333 332 333 337 338 338 337 336 336 336 336 336 335 335 335 335 334 331 329 330 332 332
339 339 339 339 338 338 339 338 337 337 336 336 337 337 337 338 338 337 337 335 334 335 336 335 334 334 334 334 334 335 335 334 333 333 334 335 335 335 334 334 334 335 336 338 339 338 338 337 337 337 337 335 333 333 335 335 332 330 329 330 331 331
339 339 339 339 337 337 338 338 337 337 337 336 336 337 337 338 338 337 336 335 335 336 336 336 335 334 334 334 334 335 335 334 333 333 334 335 336 336 334 334 336 337 339 340 339 338 338 338 338 337 334 331 332 333 334 334 330 329 330 329 329 331
340 340 339 339 338 337 338 338 337 337 337 337 336 337 338 338 338 337 336 335 336 337 337 337 336 334 334 334 334 335 335 335 334 333 333 334 336 336 334 335 337 338 340 340 339 339 339 338 337 333 328 327 330 332 333 333 329 328 330 329 330 332
340 340 340 339 338 337 338 338 338 338 338 337 337 338 338 338 337 337 336 335 336 337 337 337 337 336 335 335 335 335 336 336 335 333 333 335 337 337 335 334 336 338 339 339 339 339 339 338 336 330 326 328 330 330 332 332 329 329 330 329 331 333
340 340 340 339 339 338 338 339 338 339 339 339 338 338 338 337 335 335 334 335 335 336 338 338 338 337 336 335 335 335 336 336 335 334 334 336 337 337 336 334 336 338 339 339 339 340 338 338 335 329 328 331 330 329 330 331 329 329 329 330 332 333
340 340 340 340 339 339 339 339 339 339 340 339 339 338 338 336 334 334 334 335 336 337 338 339 339 338 338 337 336 336 335 335 336 335 336 337 337 337 336 335 336 338 339 339 340 339 338 337 333 328 328 331 331 329 328 329 329 329 329 331 331 332
340 340 340 340 339 339 339 339 339 339 339 340 339 338 337 335 335 335 335 336 337 338 339 339 340 340 340 339 338 337 334 333 335 337 337 337 336 336 336 335 336 338 339 339 340 339 338 336 331 327 327 331 333 332 330 328 327 328 329 330 331 331
341 341 340 340 340 339 339 339 339 340 340 340 339 337 337 336 337 338 338 338 338 339 340 340 341 341 341 339 337 336 334 333 334 337 337 336 336 335 334 335 336 339 339 339 339 338 337 334 331 329 328 329 328 330 335 329 324 325 327 329 330 330
341 341 341 341 341 340 341 340 340 341 340 340 339 339 339 339 339 340 340 340 339 340 341 341 342 342 341 337 336 335 333 333 335 337 337 337 337 335 333 332 335 339 339 339 339 337 335 331 330 330 329 330 329 332 337 330 324 324 325 328 329 329
341 341 341 342 342 342 341 341 341 341 341 341 341 340 340 340 340 340 340 341 340 341 341 342 342 342 340 336 335 334 332 332 335 336 336 336 336 336 333 333 336 339 339 339 339 337 334 330 329 329 328 329 329 331 333 328 327 327 323 325 327 328
341 341 341 342 342 342 342 342 341 341 341 341 341 340 340 340 341 340 341 341 342 342 342 342 342 342 339 335 335 334 332 333 335 335 334 335 336 336 335 335 338 340 339 339 339 337 334 330 328 328 327 326 326 327 329 328 330 330 325 324 324 325
341 341 341 342 342 342 342 342 342 341 342 341 341 341 340 341 341 341 341 342 342 343 342 342 341 339 337 335 335 333 331 332 335 334 333 333 336 338 337 338 340 340 339 339 339 338 334 331 329 328 327 327 326 326 327 327 327 327 327 325 323 323
341 341 341 342 342 342 342 342 342 342 342 342 341 341 341 341 341 342 341 341 342 342 342 341 339 337 336 335 335 332 329 331 334 334 333 333 335 339 340 339 339 339 338 338 336 335 334 332 331 329 328 327 326 326 327 327 326 324 324 325 323 322
341 341 341 342 342 342 342 342 342 342 342 342 341 341 341 341 342 341 341 341 341 341 341 340 338 336 336 335 335 333 329 330 334 334 334 335 337 340 341 339 339 338 337 336 333 331 331 332 331 330 329 327 326 326 326 325 326 324 322 322 322 321
341 341 342 342 342 342 342 342 342 342 342 342 342 341 341 341 341 341 340 340 339 340 340 339 337 337 337 336 336 334 331 332 335 335 336 337 339 340 340 338 338 339 337 336 335 331 329 331 331 329 329 327 326 326 325 325 325 325 323 322 321 321
341 341 342 342 342 342 342 342 342 342 342 342 342 342 341 341 341 340 340 339 339 338 338 338 338 338 337 336 336 335 333 333 335 337 337 339 339 339 339 338 338 339 337 336 335 331 329 330 331 330 328 327 326 326 325 325 325 325 324 322 321 320
341 341 342 342 342 342 342 342 342 342 342 342 342 341 341 341 341 341 341 340 339 339 339 339 339 338 337 336 336 336 334 333 334 336 338 339 340 339 339 338 338 338 336 334 333 331 330 330 330 329 328 326 325 325 325 325 324 324 324 322 321 319
341 341 341 342 342 342 342 342 341 341 341 341 341 341 341 341 341 341 341 341 340 340 340 340 340 339 338 336 336 336 335 334 333 335 338 340 340 340 338 336 337 337 335 332 331 331 330 330 329 328 327 326 325 324 324 323 323 323 323 322 320 319
341 341 341 342 342 342 342 342 341 341 341 341 341 341 341 341 341 341 341 341 341 341 340 340 340 340 339 338 336 336 335 335 334 335 338 339 339 339 338 336 335 335 333 331 330 330 330 329 328 327 326 325 324 323 323 322 322 322 321 321 321 320
341 341 341 341 342 341 342 341 341 340 340 340 340 341 341 340 341 341 341 341 341 340 340 340 340 340 340 339 337 337 336 336 335 335 337 338 338 338 337 335 334 334 332 330 330 330 329 328 327 326 325 324 323 323 322 322 321 320 320 320 321 321
341 341 341 341 341 341 341 341 341 340 340 340 340 340 341 340 341 341 340 341 340 340 340 340 340 340 340 340 339 338 337 337 336 335 336 337 337 337 337 335 334 334 332 330 330 330 329 328 327 325 324 323 323 322 321 321 320 319 319 320 320 320
Wind_Speed
29 29 28 28 28 27 26 26 27 25 24 24 23 22 22 21 20 20 19 19 18 18 17 16 14 13 13 12 11 10 10 8 6 4 5 9 11 10 9 9 9 9 8 6 6 5 4 3 2 4 5 5 6 6 7 7 5 4 4 5 6 6
29 29 28 28 28 28 26 27 27 25 24 24 23 22 22 21 21 20 20 19 19 18 18 16 15 14 13 12 11 11 11 9 6 4 5 9 11 11 9 9 9 9 8 7 6 5 3 2 3 4 4 5 6 7 7 6 5 4 4 5 5 6
30 29 29 28 28 28 27 28 28 25 24 25 24 23 23 22 21 21 20 20 19 19 18 17 16 14 13 12 12 12 11 9 7 5 5 8 10 11 10 9 9 9 8 6 5 3 2 2 2 3 4 5 6 6 7 6 6 5 5 5 5 5
31 30 29 28 27 27 27 29 29 27 26 25 25 24 24 22 21 21 20 20 19 18 17 16 15 14 14 13 13 13 12 11 9 7 6 7 9 10 10 9 9 8 7 5 4 3 3 2 2 2 3 5 6 6 6 6 6 5 5 5 4 4
31 31 30 29 28 28 27 28 29 28 27 26 25 25 24 23 22 21 20 20 19 17 17 16 15 15 15 15 15 15 13 12 10 8 7 7 8 9 10 9 8 8 6 5 3 2 3 2 2 2 3 4 4 3 4 5 5 5 4 4 3 4
32 31 30 29 29 29 28 29 29 28 28 27 26 26 25 23 23 21 20 19 18 17 16 16 16 16 16 16 16 16 14 13 11 10 8 7 7 9 9 9 9 7 6 4 2 2 3 3 2 2 4 4 3 2 3 5 5 5 4 4 3 3
32 31 30 29 29 29 29 30 29 29 29 28 27 27 26 25 24 22 21 19 18 17 17 17 17 17 17 17 17 16 15 14 13 11 9 8 8 8 9 9 8 7 5 3 1 2 2 2 2 3 4 4 3 3 5 6 5 5 4 4 2 2
32 32 30 29 29 29 30 30 29 29 29 29 28 27 27 26 24 23 22 20 18 17 17 18 18 18 18 18 18 17 16 15 14 12 11 10 9 9 9 9 8 7 5 2 1 1 1 0 2 4 4 4 4 4 6 7 6 6 4 2 1 1
32 32 31 30 30 30 30 30 29 29 29 29 28 27 27 26 25 24 23 21 19 18 18 18 18 17 17 18 18 17 16 15 14 13 12 12 11 10 10 10 9 7 4 2 1 1 1 1 3 4 5 4 4 4 5 5 4 3 2 1 1 1
32 32 31 31 31 30 30 31 30 30 30 29 28 27 27 27 26 25 24 22 19 18 18 18 17 17 16 16 16 16 15 14 13 13 13 13 11 11 11 10 9 6 3 2 2 1 1 3 4 5 5 4 2 2 3 3 1 1 2 3 3 2
32 32 32 32 31 30 30 31 30 30 30 29 29 28 28 28 27 26 24 22 20 18 18 18 17 17 15 14 14 14 13 13 12 12 13 13 12 11 11 11 8 5 4 3 3 1 3 5 5 4 3 2 0 1 2 2 2 2 3 4 4 2
31 31 31 31 31 30 30 31 30 30 29 29 28 28 28 28 27 26 24 23 21 19 19 18 18 17 15 14 13 12 12 12 12 11 12 12 11 11 11 10 8 5 4 4 3 2 4 5 4 3 2 2 2 2 2 2 3 3 3 3 3 2
31 31 31 30 30 29 30 30 29 29 29 28 28 28 28 27 25 25 24 24 22 20 20 19 18 18 16 14 13 12 12 11 11 10 10 10 10 12 12 10 8 5 5 4 3 3 3 3 2 2 2 2 2 2 1 2 3 3 3 3 2 1
30 32 31 30 30 29 29 29 29 29 29 28 28 28 28 26 25 24 24 24 22 21 21 19 19 18 17 15 14 13 13 11 10 10 10 10 10 12 12 10 8 6 6 5 4 4 2 1 1 1 2 2 2 2 1 1 2 3 4 4 3 1
31 32 32 31 31 28 28 29 30 29 29 29 29 28 28 27 25 24 24 24 23 22 22 20 19 19 18 16 15 14 14 12 10 10 10 10 10 11 11 9 8 7 7 6 6 5 4 3 2 2 2 2 3 3 2 1 2 4 4 2 0 4
31 32 32 31 32 29 27 30 31 30 29 30 29 29 27 26 26 24 24 23 24 23 23 21 20 20 19 17 16 15 14 12 11 11 10 9 10 11 10 9 8 8 8 7 7 6 5 5 4 3 4 4 6 5 3 3 2 3 3 2 3 5
33 34 32 31 32 31 29 30 31 30 30 31 30 29 28 27 25 24 24 24 24 24 23 22 21 21 20 17 16 15 13 12 12 11 10 10 10 10 10 9 8 7 7 8 8 7 6 6 4 5 6 6 6 4 4 3 2 2 3 4 5 6
33 34 33 32 32 32 30 30 31 31 30 31 30 29 28 27 25 25 24 25 25 25 24 22 21 21 20 18 16 15 12 11 12 12 12 11 10 10 10 9 9 8 9 9 10 8 6 5 4 5 6 5 3 3 4 2 1 3 5 5 6 7
33 33 33 32 32 32 31 30 30 29 28 29 28 28 28 28 26 26 25 25 26 25 24 22 21 21 21 18 16 15 13 12 13 13 13 13 11 10 10 10 10 10 10 10 9 8 6 5 3 3 3 2 2 2 3 2 2 4 5 5 7 10
33 33 33 32 31 32 32 30 28 27 27 27 27 27 28 28 28 26 25 26 27 26 24 22 21 21 21 19 17 16 14 13 14 14 14 14 13 12 11 12 12 12 12 11 9 7 6 4 3 1 2 3 0 2 2 3 4 5 5 5 8 11
33 33 33 32 31 31 31 30 28 27 27 26 26 26 27 29 29 27 26 26 27 25 24 23 22 22 22 21 19 17 16 15 16 16 15 15 15 13 12 13 14 14 13 12 10 8 6 5 3 2 2 5 6 6 4 4 4 5 7 8 9 11
34 33 33 32 31 31 30 29 27 26 25 24 25 26 26 28 29 27 26 26 26 24 24 24 23 22 22 23 22 21 20 18 18 17 16 16 16 15 14 15 15 14 13 12 10 8 7 6 3 3 3 5 7 8 8 6 5 7 9 9 9 11
34 34 34 33 31 30 29 28 26 25 25 23 24 26 26 26 26 26 25 25 25 24 23 24 23 22 22 22 23 24 23 21 20 18 17 17 17 16 16 16 16 15 14 13 11 9 9 7 5 5 4 3 2 3 5 7 9 8 8 9 9 11
34 35 34 33 32 31 30 28 27 25 25 24 23 25 25 25 26 26 25 25 25 24 23 23 23 22 21 21 23 24 24 22 21 20 18 17 16 17 17 17 16 16 15 14 12 10 9 8 7 5 3 2 1 2 1 3 9 12 8 9 10 10
35 35 34 34 33 31 29 28 26 24 24 24 22 23 24 25 26 27 26 26 25 24 24 23 22 21 21 21 22 22 22 21 21 20 18 16 15 16 17 17 16 17 18 16 13 11 9 9 8 7 5 2 2 1 1 3 4 10 10 11 11 11
35 35 34 35 34 32 29 27 26 24 23 22 20 22 25 26 27 28 27 26 25 25 24 23 22 21 21 21 21 20 20 21 22 20 18 16 15 15 16 17 18 19 19 18 15 12 11 10 9 8 8 6 4 3 4 5 3 4 9 12 12 12
35 35 35 35 34 33 30 28 28 26 24 23 22 22 24 26 27 27 27 26 26 25 24 24 22 21 21 22 21 20 20 22 23 21 19 17 16 16 16 17 18 20 19 18 16 14 13 12 10 9 8 7 5 4 9 8 4 3 3 7 10 12
34 34 35 35 35 33 31 29 28 28 27 28 27 25 24 25 25 26 26 26 25 24 24 23 22 22 22 21 20 19 19 21 23 22 20 18 17 16 17 19 19 20 20 19 18 16 14 14 13 11 9 8 6 6 9 9 8 7 4 2 4 8
34 34 35 36 35 34 33 30 30 30 29 29 28 26 24 24 24 25 25 25 24 24 24 23 23 23 22 21 20 19 19 21 22 22 20 19 17 17 19 20 19 19 18 17 16 15 14 15 14 13 11 10 8 8 8 7 9 8 5 4 2 3
34 34 35 36 35 35 33 32 32 32 30 28 26 24 23 23 25 25 25 24 24 24 24 24 24 23 22 21 21 20 20 21 22 21 20 19 17 18 19 18 18 17 16 14 13 14 14 13 14 14 13 11 11 10 7 5 7 7 6 5 4 5
34 34 35 35 35 36 34 34 34 34 32 29 26 24 23 23 24 24 24 24 24 24 24 23 23 23 22 22 22 22 21 22 22 21 20 18 18 18 18 17 18 17 18 17 14 15 16 13 13 14 13 13 13 11 9 7 9 10 7 5 6 7
33 33 34 35 36 36 35 35 35 35 33 31 28 26 25 25 25 24 24 23 23 23 23 23 23 22 22 22 24 24 23 24 23 22 21 19 18 19 19 19 19 18 19 17 13 15 17 13 13 15 14 13 12 12 11 9 11 13 11 10 13 9
33 33 33 35 36 36 35 36 36 34 33 31 29 28 27 26 25 25 25 24 24 23 23 23 23 23 23 23 24 25 25 26 25 24 22 20 19 19 19 19 19 18 17 15 13 14 14 12 12 14 13 13 11 11 11 9 10 13 12 14 18 12
33 33 33 34 36 36 36 37 36 34 33 31 30 29 27 26 25 25 25 25 25 24 25 24 25 25 24 23 25 26 27 27 26 25 23 21 21 22 19 18 19 19 16 14 15 13 12 12 12 12 12 12 11 10 10 9 10 12 11 14 20 18
33 33 34 34 35 35 36 37 35 33 32 32 31 30 27 26 25 25 25 25 25 25 25 25 25 25 25 25 26 27 28 28 27 25 23 22 23 23 20 17 20 19 16 16 16 13 13 13 12 12 12 11 10 10 9 9 9 9 10 14 19 25
34 34 34 35 35 35 36 36 34 32 32 31 30 28 27 25 24 25 25 25 25 24 24 24 24 25 26 26 27 27 27 28 27 25 24 25 24 23 19 18 21 20 17 17 17 15 15 13 12 12 11 11 11 10 10 9 9 8 9 12 18 25
33 33 35 35 35 35 35 34 34 32 31 30 29 28 26 25 25 25 25 25 24 23 23 23 23 24 25 25 27 27 27 27 27 26 25 25 23 21 18 18 22 22 19 19 19 17 16 13 12 12 11 11 11 11 10 9 9 10 11 12 16 23
Wind_Direction
177 177 177 174 172 172 174 173 170 169 168 167 166 167 167 166 168 169 170 173 174 174 175 175 176 177 179 185 188 186 182 178 183 183 179 177 176 179 178 176 177 181 188 191 192 191 194 222 277 310 324 324 318 318 320 326 330 324 319 325 325 324
178 179 179 176 174 173 174 173 170 169 169 169 168 169 169 170 171 171 173 177 179 180 181 181 181 182 185 191 192 187 186 186 192 187 175 176 177 180 179 176 178 186 194 200 205 209 226 266 311 326 329 319 306 304 309 315 318 312 309 311 311 311
178 180 180 178 176 175 175 174 170 170 171 170 170 171 173 174 174 174 176 181 184 185 186 186 185 187 190 193 191 188 190 195 199 195 179 175 179 181 182 182 186 191 197 205 216 234 270 305 318 321 315 304 294 293 298 301 302 299 299 301 305 310
180 181 181 179 178 177 178 175 171 172 172 171 173 175 176 176 177 178 180 184 188 188 189 189 188 191 195 195 191 191 196 202 202 201 189 177 180 184 187 190 193 200 207 219 238 267 295 309 308 313 315 303 294 295 297 295 296 301 304 298 304 316
181 182 182 181 179 179 180 176 173 174 173 172 175 177 179 179 180 183 184 188 192 191 189 188 190 195 198 195 193 197 202 206 207 207 199 185 184 187 192 197 204 211 220 233 253 284 295 290 280 299 331 329 314 301 290 290 297 307 317 306 311 320
181 183 183 181 180 180 181 178 176 176 174 175 177 178 181 182 183 186 188 191 193 193 191 189 193 198 198 195 197 203 206 211 212 212 207 196 191 190 194 201 208 215 223 229 244 279 282 279 283 311 339 351 346 301 276 286 294 304 312 302 311 317
181 183 183 182 181 181 181 180 179 178 176 177 180 180 182 184 185 189 191 193 194 196 196 193 196 200 199 199 202 207 211 215 217 216 213 205 198 195 197 203 208 212 215 216 240 275 273 273 297 324 337 344 336 309 302 305 296 291 290 286 298 300
182 182 183 183 183 183 182 181 181 181 179 179 182 182 184 186 188 191 194 196 196 199 198 196 199 203 204 204 207 211 215 220 220 219 218 212 203 199 200 203 208 205 200 209 254 252 218 295 313 314 318 326 327 321 320 322 301 277 270 275 294 291
184 184 184 185 184 184 184 182 182 184 183 181 183 184 186 188 191 194 197 198 198 200 199 200 202 206 208 208 210 214 217 222 222 220 219 215 208 202 202 203 202 195 193 214 213 174 168 314 304 296 305 319 336 348 344 338 308 260 251 296 320 323
185 185 186 186 185 185 186 184 184 185 186 185 184 186 188 191 193 196 198 199 200 201 200 202 207 211 215 214 213 214 215 217 217 217 217 215 212 207 202 198 192 188 202 206 176 180 258 297 293 284 298 318 352 21 12 9 341 269 282 293 299 308
187 186 186 186 186 187 188 186 186 186 186 187 187 188 191 194 196 197 200 199 199 202 202 205 210 213 216 213 211 210 211 214 215 215 216 215 214 209 198 191 187 192 207 197 185 234 290 301 302 289 288 286 224 337 340 343 324 299 294 291 296 292
188 187 187 188 186 188 190 188 188 187 186 188 190 192 195 197 198 198 200 199 200 203 203 207 211 212 212 210 209 211 215 220 220 216 218 219 216 208 196 190 191 198 198 193 202 258 286 294 301 293 273 234 224 254 280 310 316 312 312 313 310 253
188 188 188 189 188 189 190 189 189 189 187 188 191 195 198 200 200 199 200 201 201 204 206 208 210 211 212 213 215 219 225 229 225 221 223 223 216 205 198 197 200 204 198 195 223 262 273 286 303 286 237 208 207 232 272 308 312 312 312 313 329 259
189 189 189 190 189 190 191 189 190 191 190 190 193 199 202 203 202 201 201 202 203 206 209 210 211 212 215 218 223 227 232 232 227 224 225 222 213 204 204 207 210 217 211 207 236 248 232 208 91 138 172 183 207 253 291 281 277 314 319 308 322 136
190 190 190 191 190 189 192 191 191 193 192 193 196 202 205 205 206 204 204 203 204 208 212 213 211 212 216 221 227 232 234 230 225 223 223 220 214 211 214 216 221 226 217 217 234 225 200 192 189 192 203 246 284 291 281 223 279 328 342 345 151 144
190 191 191 192 191 189 190 192 193 195 195 197 200 204 207 208 208 208 207 205 206 209 213 215 212 211 216 224 230 235 234 229 226 225 224 223 225 226 226 225 225 221 215 220 227 217 211 226 238 252 271 290 296 293 260 226 316 347 27 87 141 144
192 193 191 193 193 191 192 195 196 197 199 201 203 205 208 211 210 210 210 209 209 211 213 216 215 214 218 225 233 235 232 229 230 231 232 237 240 237 234 228 215 208 215 223 224 222 227 238 252 269 287 297 295 282 231 222 344 42 103 116 142 145
193 193 193 193 194 193 194 198 198 199 202 204 206 207 210 214 213 212 212 211 212 213 215 217 216 217 220 226 232 233 232 232 235 240 243 248 246 238 233 220 208 210 219 221 226 233 237 241 259 282 295 298 287 251 214 218 37 115 124 120 146 152
193 193 193 194 195 194 195 199 201 202 204 206 208 208 211 216 216 216 214 213 215 216 217 218 218 219 222 226 228 229 231 234 238 242 246 249 244 237 228 212 211 221 223 222 228 234 236 241 262 292 307 306 256 223 207 184 98 128 129 123 150 153
193 194 193 193 194 195 196 200 201 203 206 208 209 210 213 217 220 220 217 215 217 218 219 220 221 222 223 224 224 225 228 234 239 240 243 244 239 237 229 217 219 225 226 225 222 225 230 236 240 242 14 6 266 174 174 159 126 126 131 134 150 154
193 193 193 193 193 194 196 197 200 202 204 206 208 210 213 218 221 221 218 217 219 220 221 222 224 224 225 224 224 226 229 237 241 239 240 240 238 242 237 228 226 226 227 225 221 223 225 218 205 174 65 57 85 99 106 142 142 133 138 144 154 158
191 192 193 194 194 195 197 197 198 200 201 204 207 210 213 217 219 219 218 218 220 220 222 224 226 227 230 229 230 231 232 238 242 240 241 241 241 244 240 232 228 226 225 224 224 222 217 211 185 161 118 85 86 86 81 90 114 134 141 145 158 163
190 191 193 194 195 196 199 199 199 200 200 202 207 213 216 216 217 218 219 219 220 221 223 227 229 231 235 236 236 236 235 238 239 238 241 244 245 244 240 233 229 230 225 218 220 219 218 211 179 148 121 103 103 88 64 61 73 90 124 138 147 158
190 191 193 194 196 198 200 201 202 204 204 205 210 215 217 219 219 220 220 219 220 222 226 231 234 236 238 239 238 237 237 237 235 235 242 248 250 246 240 234 231 232 226 215 213 213 213 208 191 175 138 98 127 129 79 58 63 59 85 123 126 142
190 191 193 195 197 199 198 199 200 201 203 205 210 213 215 219 221 222 221 220 220 222 229 236 238 241 240 238 238 239 239 235 232 237 244 250 256 251 240 236 235 232 227 220 214 208 201 196 193 196 191 155 135 141 194 181 94 53 62 95 111 133
191 191 193 196 198 198 196 196 194 193 193 196 203 209 211 215 218 220 222 222 221 224 231 237 240 242 240 238 239 242 239 230 230 239 246 251 257 251 239 237 236 232 230 225 219 210 195 186 182 194 206 203 208 213 176 166 150 57 61 76 96 123
191 190 193 196 197 197 196 195 195 195 195 197 205 211 213 217 220 221 223 224 225 227 232 236 239 240 239 239 241 245 240 229 230 240 244 246 250 248 240 236 234 235 234 229 223 215 197 185 175 178 196 201 212 199 171 167 167 153 98 67 82 105
192 191 193 196 197 198 198 196 196 199 202 205 210 214 217 219 223 225 225 226 226 229 233 236 237 238 237 238 241 246 242 231 231 238 240 241 247 247 239 233 233 237 238 230 226 222 205 193 185 179 178 182 186 173 170 177 173 156 133 89 85 94
192 191 193 196 197 200 201 199 200 202 206 209 211 214 217 219 223 226 227 226 226 227 231 234 236 238 238 238 240 245 243 233 231 237 237 238 244 245 238 236 237 237 237 233 233 233 217 203 201 196 187 182 174 164 164 173 172 156 124 129 154 119
193 192 193 196 197 200 202 203 204 206 208 208 209 211 213 216 220 223 224 224 224 224 227 231 235 238 239 238 237 242 242 235 233 236 236 237 241 242 240 239 236 232 236 241 246 249 237 218 212 208 200 191 176 165 159 161 173 163 126 112 129 151
192 192 192 195 197 201 203 205 208 209 210 209 207 206 206 209 213 216 218 219 220 221 224 228 234 239 240 238 236 238 240 238 237 238 238 239 241 243 244 239 234 233 237 238 239 244 240 224 211 207 205 203 196 189 186 193 198 187 163 128 129 147
192 191 192 194 196 200 202 206 209 210 211 210 208 206 205 206 207 210 212 214 216 218 221 226 232 238 240 239 237 236 238 238 239 240 240 241 243 248 249 242 238 237 238 237 229 231 232 221 209 206 205 208 210 209 207 212 213 204 195 168 150 146
191 190 191 193 196 199 202 206 209 210 211 211 211 211 209 207 207 209 211 212 214 216 220 225 231 237 240 240 239 238 239 239 240 241 241 241 244 246 244 242 239 234 232 230 218 219 225 219 212 211 210 209 208 210 212 218 215 208 202 172 152 143
190 189 191 193 196 199 203 207 210 211 211 212 213 214 213 210 208 210 212 214 217 219 223 228 233 239 242 242 242 242 243 242 242 241 239 238 239 241 240 242 240 232 223 217 209 210 218 216 210 210 212 211 206 206 207 205 203 202 200 180 161 149
189 189 190 193 195 199 203 208 211 211 212 213 215 215 214 214 212 213 215 217 221 224 228 234 239 242 245 244 245 245 245 244 242 239 236 235 237 237 235 233 234 230 220 212 208 207 212 213 211 208 207 207 201 196 192 186 190 199 203 197 181 165
189 188 190 192 195 199 203 207 210 211 212 212 213 213 213 214 216 218 221 223 225 229 233 239 242 245 246 247 248 247 246 245 241 236 234 235 238 238 232 222 221 222 217 211 208 208 209 209 208 205 200 199 195 188 183 182 184 194 198 200 195 181
189 189 191 193 195 199 202 206 209 211 212 211 211 212 213 215 219 222 226 228 231 234 238 242 245 247 249 251 254 252 249 246 240 235 234 233 234 237 234 221 214 216 216 211 208 206 204 203 201 199 195 192 190 184 179 179 184 194 199 198 196 191